www.pogodaiklimat.ru

Погода и климат >> Архив погоды >> Малайзия >> Бинталу


ПОГОДА в Бинталу

  • Прогноз погоды в Бинталу
  • Монитор погоды в Бинталу

АРХИВ ПОГОДЫ в Бинталу

Время (UTC), дата Ветер
(напр.,м/с)
 
Видим.   Явления Облачность Т
(С)
Тd
(С)
f
(%)
Тe
(С)
Тes
(С)
Комфортность P
(гПа)
Po
(гПа)
Тmin
(С)
Tmax
(С)
R
(мм)
R24
(мм)
S
(см)
00 13.08 В 2 8000 м мгла 9/1 50 м
[Cu hum Ac trans Ci fib]
+26.0 +23.8 88 +36 +37 очень
душно
1010.9 1008.2 +24.4
03 13.08 ЮВ 3 8000 м мгла 9/3 480 м
[Cu med, cong Ac trans Ci fib]
+29.7 +25.1 76 +43 +50 опасность
перегрева
1011.3 1008.6
06 13.08 ЮВ 2 8000 м мгла 9/3 480 м
[Cu hum Ac As]
+31.9 +25.3 68 +46 +51 опасность
перегрева
1008.8 1006.1
09 13.08 СВ 1 8000 м мгла 9/3 480 м
[Cu med, cong Ac trans Ci fib]
+31.7 +26.0 72 +47 +49 опасность
перегрева
1008.0 1005.3
12 13.08 В 2 8000 м мгла 9/3 480 м
[Sc Ac lent Ci fib]
+27.8 +26.2 91 +42 +42 опасность
перегрева
1009.7 1007.0 +32.3
15 13.08 В 2 8000 м мгла 9/3 480 м
[Sc Ac lent Ci fib]
+26.7 +25.8 95 +40 +40 очень
душно
1011.3 1008.6
18 13.08 З 2 8000 м зарница 9/6 450 м
[Cb cap Ac trans Ci fib]
+25.2 +23.9 93 +35 +35 очень
душно
1011.0 1008.3
21 13.08 Ю 1 8000 м гроза, ливневой дождь 10/5 450 м
[Cb cap As op]
+24.1 +22.9 93 +32 +32 очень
душно
1010.6 1007.9
00 14.08 В 2 13 км мгла 9/1 100 м
[Cu hum Ac lent Ci fib]
+26.4 +22.8 81 +35 +37 очень
душно
1011.2 1008.5 +23.4 0.0
03 14.08 В 1 13 км мгла 9/4 480 м
[Cu hum Ac lent Ci fib]
+32.0 +25.7 69 +47 +54 опасность
перегрева
1011.6 1008.9
06 14.08 СЗ 4 6000 м мгла 9/3 480 м
[Cu med, cong Ac lent Ci fib]
+32.7 +26.0 68 +48 +53 опасность
перегрева
1008.9 1006.2
09 14.08 СЗ 3 8000 м мгла 9/3 450 м
[Cb cap Ac trans Ci fib]
+30.8 +26.7 79 +48 +49 опасность
перегрева
1007.9 1005.2
12 14.08 З 1 8000 м мгла 9/4 480 м
[Sc Ac trans Ci fib]
+29.0 +26.4 86 +44 +44 опасность
перегрева
1010.1 1007.4 +33.6
15 14.08 штиль 0 6000 м мгла 9/3 480 м
[Sc Ac trans Ci fib]
+27.5 +26.1 92 +41 +41 опасность
перегрева
1011.4 1008.7
18 14.08 штиль 0 8000 м мгла 9/4 480 м
[Sc Ac trans Ci fib]
+26.8 +25.7 94 +40 +40 очень
душно
1010.3 1007.6
21 14.08 СВ 3 6000 м гроза, ливневой дождь 10/6 450 м
[Cb cap As op]
+25.3 +24.4 95 +35 +35 очень
душно
1011.6 1008.9
00 15.08 В 4 5000 м ливневой дождь, в посл. час гроза 10/5 480 м
[Sc As op]
+24.3 +23.9 98 +33 +33 очень
душно
1012.9 1010.2 +24.2 7
03 15.08 ЮВ 3 15 км мгла {дождь} 9/5 480 м
[Sc Ac As]
+26.9 +24.8 88 +38 +42 очень
душно
1013.0 1010.3
06 15.08 З 4 1200 м ливневой дождь 9/5 450 м
[Cb cap Ac As]
+25.0 +24.2 95 +34 +37 очень
душно
1011.4 1008.7 2
09 15.08 Ю 2 10 км мгла 9/4 420 м
[Sc diur, vesp Ac As]
+25.7 +23.6 88 +35 +36 очень
душно
1009.8 1007.1
12 15.08 В 2 12 км мгла 9/3 480 м
[Sc Ac trans Ci fib]
+24.7 +23.8 95 +34 +34 очень
душно
1010.4 1007.7 +29.5 0.0
15 15.08 штиль 0 12 км мгла 9/3 480 м
[Sc Ac trans Ci fib]
+24.0 +23.3 96 +32 +32 очень
душно
1011.5 1008.8
18 15.08 В 2 13 км мгла 9/4 480 м
[Sc Ac As]
+23.9 +23.2 96 +32 +32 очень
душно
1010.5 1007.8 0.2
21 15.08 В 2 13 км мгла 9/4 480 м
[Sc Ac As]
+24.1 +23.3 95 +32 +32 очень
душно
1010.4 1007.7
00 16.08 В 1 10 км мгла 9/3 50 м
[Sc Ac As]
+24.8 +23.6 93 +34 +35 очень
душно
1011.7 1009.0 +23.8 2
03 16.08 В 2 13 км мгла 9/1 420 м
[Cu med, cong Ac trans Ci fib]
+29.4 +25.4 79 +43 +53 опасность
перегрева
1011.5 1008.8
06 16.08 З 3 15 км мгла 9/3 420 м
[Cb cap Ac lent Ci fib]
+32.9 +25.5 65 +47 +53 опасность
перегрева
1009.0 1006.3
09 16.08 СЗ 2 15 км мгла 9/3 450 м
[Cb cap Ac trans Ci fib]
+32.4 +25.0 65 +46 +47 опасность
перегрева
1007.8 1005.1
12 16.08 штиль 0 15 км зарница 9/4 450 м
[Cb cap Ac lent Ci fib]
+28.2 +25.5 85 +41 +41 опасность
перегрева
1009.6 1006.9 +33.5
15 16.08 ЮЗ 2 15 км мгла 9/3 480 м
[Sc Ac lent Ci fib]
+25.9 +24.1 90 +36 +36 очень
душно
1011.8 1009.1
18 16.08 В 2 15 км мгла 9/4 480 м
[Sc Ac trans Ci fib]
+25.0 +23.7 93 +34 +34 очень
душно
1010.7 1008.0
21 16.08 В 2 8000 м гроза, ливневой дождь 9/4 450 м
[Cb cap Ac trans Ci fib]
+25.3 +24.1 93 +35 +35 очень
душно
1010.8 1008.1
00 17.08 В 2 25 км в посл. час дождь {гроза} 9/3 <50 м
[Sc Ac trans Ci fib]
+25.8 +24.6 93 +36 +38 очень
душно
1012.2 1009.5 +24.4 1
03 17.08 В 2 30 км {дождь} 9/3 420 м
[Cu med, cong Ac lent Ci fib]
+30.9 +24.4 68 +43 +50 опасность
перегрева
1012.0 1009.3
06 17.08 СЗ 4 18 км мгла 9/3 480 м
[Cu hum Ac trans Ci fib]
+32.0 +25.4 68 +46 +52 опасность
перегрева
1009.8 1007.1
09 17.08 СЗ 3 20 км в посл. час гроза 9/3 480 м
[Cu hum Ac trans Ci fib]
+30.1 +25.4 76 +44 +45 опасность
перегрева
1008.5 1005.8
12 17.08 В 2 13 км мгла 9/1 480 м
[Sc Ac trans Ci fib]
+26.7 +25.4 93 +39 +39 очень
душно
1010.1 1007.4 +32.7
15 17.08 В 2 13 км зарница 9/4 450 м
[Cb cap Ac As]
+25.4 +24.1 93 +35 +35 очень
душно
1012.0 1009.3
18 17.08 ЮВ 2 13 км гроза без осадков 9/5 450 м
[Cb cap Ac As]
+24.8 +23.6 93 +34 +34 очень
душно
1011.6 1008.9
21 17.08 штиль 0 15 км мгла 9/4 480 м
[Sc Ac As]
+24.3 +23.2 94 +33 +33 очень
душно
1011.5 1008.8
00 18.08 ЮВ 2 18 км мгла 9/3 50 м
[Cb cap Ac trans Ci fib]
+24.5 +22.3 88 +32 +33 очень
душно
1012.9 1010.1 +23.6
03 18.08 З 2 18 км мгла 9/4 450 м
[Cb cap Ac trans Ci fib]
+30.9 +25.0 71 +44 +51 опасность
перегрева
1013.0 1010.3
06 18.08 СЗ 5 18 км мгла 9/3 480 м
[Cu med, cong Ac lent Ci fib]
+31.6 +24.6 66 +44 +48 опасность
перегрева
1010.4 1007.7
09 18.08 З 4 18 км гроза без осадков 9/6 420 м
[Cb cap Ac trans Ci fib]
+29.2 +24.7 77 +42 +42 опасность
перегрева
1009.5 1006.8
12 18.08 В 2 12 км слаб. дождь {гроза} 10/3 420 м
[Sc As op]
+26.3 +25.5 95 +38 +38 очень
душно
1011.0 1008.3 +32.1 0.4
15 18.08 В 3 15 км мгла {дождь} 9/1 420 м
[Sc Ac As]
+25.0 +24.3 96 +35 +35 очень
душно
1012.3 1009.6
18 18.08 В 1 15 км мгла 9/3 480 м
[Sc Ac trans Ci fib]
+24.3 +23.9 98 +33 +33 очень
душно
1011.3 1008.6 0.2
21 18.08 В 2 15 км мгла 9/3 480 м
[Sc Ac As]
+24.0 +23.3 96 +32 +32 очень
душно
1010.9 1008.2
00 19.08 штиль 0 15 км мгла 9/1 480 м
[Sc Ac trans Ci fib]
+25.5 +24.1 92 +35 +38 очень
душно
1011.5 1008.8 +23.9 0.6
03 19.08 В 2 15 км мгла 9/1 480 м
[Cu hum Ac lent Ci fib]
+30.8 +24.2 68 +43 +52 опасность
перегрева
1010.5 1007.8
06 19.08 СЗ 3 18 км мгла 9/5 450 м
[Cb cap Ac lent Ci fib]
+33.4 +25.2 62 +47 +52 опасность
перегрева
1008.1 1005.4
09 19.08 З 4 18 км мгла 9/3 480 м
[Cu med, cong Ac lent Ci fib]
+31.8 +24.9 67 +45 +46 опасность
перегрева
1007.1 1004.4
12 19.08 З 1 15 км зарница 9/3 450 м
[Cb cap Ac lent Ci fib]
+28.1 +24.9 83 +40 +40 очень
душно
1009.2 1006.5 +33.4
15 19.08 ЮЗ 1 15 км мгла 9/3 480 м
[Sc Ac trans Ci fib]
+26.3 +24.6 90 +37 +37 очень
душно
1010.7 1008.0
18 19.08 Ю 2 12 км мгла 9/4 480 м
[Sc Ac trans Ci fib]
+26.6 +24.7 89 +38 +38 очень
душно
1009.7 1007.0
21 19.08 В 2 3000 м гроза, ливневой дождь 10/5 150 м
[Cb cap As op]
+25.1 +24.7 98 +35 +35 очень
душно
1009.9 1007.2

 

Местоположение метеостанции Бинталу (Малайзия): широта 3.20 долгота 113.03 высота над уровнем моря 5 м.

В архиве по умолчанию представлена погода в Бинталу за последнюю неделю. Архивные данные за месяц целиком и за предыдущие месяцы, начиная с января 2011 года, Вы можете получить, выбрав интересующий диапазон дат из раскрывающегося списка и нажав кнопку "Ввод!".


*Определитесь, кто Вы:
робот инопланетянин человек

Внимание! Время в таблицах - всемирное. Для получения местного времени необходимо прибавить поправку, которая равна 8 ч.

Смотрите также архив погоды в соседних городах и на ближайших метеорологических станциях:

Погода в Мири (Малайзия) (164 км)
Погода в Сибу (Малайзия) (165 км)
Погода на Путусиббау (Индонезия) (263 км)
Погода в Брунее (Бруней) (285 км)
Погода в Лонгбаване (Индонезия) (300 км)
Погода в Лабуане (Малайзия) (339 км)
Погода в Кучинге (Малайзия) (356 км)
Погода в Синтанге (Индонезия) (381 км)
Погода в Нангапинохе (Индонезия) (419 км)
Погода в Парохе (Индонезия) (444 км)

Пояснения к столбцам:

Ветер - указаны скорость ветра в м/с - средняя за 10 мин, порывы в срок и между сроками (в фигурных скобках) и направление, откуда дует ветер: С - северный, СВ - северо-восточный, В - восточный, ЮВ - юго-восточный, Ю - южный, ЮЗ - юго-западный, З - западный, СЗ - северо-западный.
Видимость - горизонтальная дальность видимости в метрах или километрах. При видимости от 1 до 10 км при отсутствии осадков обычно наблюдается дымка, при ухудшении видимости до 1 км и менее - туман. В сухую погоду видимость может ухудшаться дымом, пылью или мглою.
Явления - указаны атмосферные явления, наблюдавшиеся в срок или в последний час перед сроком; фигурными скобками обозначены явления, наблюдавшиеся между сроками (за 1-3 часа до срока); квадратными скобками обозначены град или гололедные отложения с указанием их диаметра в мм.
Облачность - указаны через наклонную черту общая и нижняя облачность в баллах и высота нижней границы облаков в метрах; квадратными скобками обозначены формы облаков: Ci - перистые, Cs - перисто-слоистые, Cc - перисто-кучевые, Ac - высококучевые, As - высокослоистые, Sc - слоисто-кучевые, Ns - слоисто-дождевые, Cu - кучевые, Cb - кучево-дождевые. Подробнее классификацию облаков см. в Атласе облаков (PDF).
T - Температура воздуха - температура, измеренная на высоте 2 м над землей.
Td - Температура точки росы - температура, при понижении до которой содержащийся в воздухе водяной пар достигнет насыщения.
f - Относительная влажность воздуха - влажноcть воздуха, измеренная на высоте 2 м над землей.
Te - Эффективная температура - температура, которую ощущает одетый по сезону человек в тени. Характеристика душности погоды. При расчете учитывается влияние влажности воздуха и скорости ветра на теплоощущения человека.
Tes - Эффективная температура на солнце - температура, которую ощущает человек, с поправкой на солнечный нагрев. Характеристика знойности погоды. Зависит от высоты солнца над горизонтом, облачности и скорости ветра. Ночью, в пасмурную погоду, а также при ветре 12 м/с и более поправка равна нулю.
P - Атмосферное давление - приведенное к уровню моря атмосферное давление.
Po - Атмосферное давление - измеренное на уровне метеостанции атмосферное давление.
Tmin - Минимальная температура - минимум температуры воздуха на высоте 2 м над землей.
Tmax - Максимальная температура - максимум температуры воздуха на высоте 2 м над землей.
R - Количество осадков - Количество выпавших осадков за период времени, мм. При наведении курсора мыши на число - период времени, за который выпало указанное количество осадков.
R24 - Количество осадков - Количество выпавших осадков за 24 часа, мм.
S - Снежный покров - Высота снежного покрова, см. При наведении курсора мыши на число - состояние снежного покрова и степень покрытия местности в баллах.